Погода в Кузоватово

Россия / Ульяновская область     53°33′21″N   47°37′18″E
темп.,
°C
ветер,
м/с
пор.,
м/с
влажн.,
%
обл.,
%
осадки,
мм/ч
давл.,
гПа
погр.,
м
9 марта, вт
вт901:00−12з36940 0.0 1006125
04:00−14з22970 0.0 100928
07:00−15з129619 0.0 101020
10:00−10з238910 0.0 1011225
13:00−6сз22789 0.0 1010727
16:00−6сз238255 0.1 1010673
19:00−9ссз3795100 0.5 1011290
22:00−13сз3994100 0.7 1012378
10 марта, ср
ср1001:00−16сз389767 0.0 1012211
04:00−17сз399679 0.1 1013270
07:00−18сз4119695 0.0 1015331
10:00−16сз5119095 0.1 1016528
13:00−14сз5986100 0.0 1017728
16:00−14сз5986100 0.1 1018758
19:00−18ссз51192100 0.1 1020567
22:00−21ссз41194100 0.1 1022465
11 марта, чт
чт1101:00−22ссз31097100 0.0 1024290
04:00−24сз389878 0.0 1026188
07:00−25сз369854 0.0 1026130
10:00−20сз499468 0.0 1027371
13:00−14зсз488698 0.0 1026548
16:00−13сз589098 0.2 1026805
19:00−16сз3994100 0.1 1026348
22:00−17сз369793 0.1 1028151
12 марта, пт
пт1201:00−18сз249882 0.0 102969
04:00−18сз229983 0.0 103030
07:00−19зсз229850 0.0 103225
10:00−12сз248825 0.0 1033222
13:00−6сз23710 0.0 1033428
16:00−5зсз23730 0.0 1033656
19:00−11зсз22870 0.0 103421
22:00−13юз12843 0.0 103520
13 марта, сб
сб1301:00−15юз22900 0.0 103523
04:00−16юз23907 0.0 103631
07:00−17ююз22942 0.0 103626
10:00−12ююз36851 0.0 1036265
13:00−7ююз49780 0.0 1035550
16:00−7ююз59740 0.0 1033711
19:00−12ю4108661 0.0 1032284
22:00−15ююз4119280 0.0 1032291